Location: Stonelick Lake State Park
(39.2170°N, 84.0850°W)
Time: 09:15:13
(UTC-04:00)

Daily predictions for brighter satellites

Satellite Brightness Start Highest point End
(mag) Time Altitude Azimuth Time Altitude Azimuth Time Altitude Azimuth
Cosmos 2369 4.4 20:33:24 10° SSE 20:38:19 31° ESE 20:43:17 10° NE
Resurs 1-3 3.6 20:34:40 10° SSE 20:39:01 72° ENE 20:43:24 10° N
NOSS 2-1 (E) 3.3 20:35:52 10° SSW 20:39:44 78° ESE 20:44:07 10° NE
SJ-6B 4.4 20:37:25 10° SSW 20:40:54 37° W 20:44:24 10° NNW
Cosmos 1461 4.2 20:37:37 10° N 20:40:56 23° NE 20:44:08 10° ESE
Meteor 1-23 Rocket 4.3 20:37:27 10° N 20:43:03 63° E 20:48:42 10° SSE
METEOR-M 4.3 20:38:14 10° SSE 20:43:34 84° WSW 20:48:58 10° NNW
Meteor 1-29 3.3 20:40:38 10° N 20:44:04 71° WNW 20:47:31 10° SSW
Cosmos 2239 Rocket 4.5 20:39:36 10° S 20:45:47 70° E 20:51:57 10° NNE
Cosmos 1633 3.1 20:47:17 10° SSW 20:50:55 65° W 20:54:33 10° N
Centaur D-1A AC-32 4.1 20:48:07 10° SW 20:51:02 15° SSW 20:53:07 10° SSE
FengYun 1-2 T 4.3 20:49:39 10° SSE 20:55:19 90° W 21:00:58 10° NNW
Lacrosse 5 3.9 20:52:13 10° NNW 20:55:32 17° NNE 20:58:52 10° ENE
CZ-2D R/B 3.4 20:51:58 10° SSE 20:55:43 53° ENE 20:59:31 10° N
Cosmos 1934 Rocket 4.0 20:50:03 10° S 20:56:03 65° E 21:02:13 10° NNE
Resurs 01 Rocket 2.5 20:51:46 10° S 20:56:06 54° W 21:00:28 10° NNW
ATLAS CENTAUR R/B 4.3 20:53:58 10° WSW 20:58:09 26° NW 21:02:17 10° N
Hubble Space Telescope 2.9 20:57:18 10° SW 20:59:51 16° S 21:02:25 10° SSE
Cosmos 1777 Rocket 4.0 20:58:17 10° NNW 21:03:34 89° WSW 21:08:50 10° SSE
EP 1 4.0 21:06:34 10° SSW 21:09:04 67° ESE 21:11:36 10° NE
Delta 2 Rocket 4.3 21:04:33 10° W 21:10:04 54° S 21:14:11 16° ESE
Cosmos 1346 Rocket 2.7 21:07:03 10° N 21:10:58 67° E 21:14:56 10° SSE
Cosmos 1544 Rocket 3.7 21:07:33 10° S 21:11:55 77° W 21:16:20 10° N
Cosmos 2227 Rocket 2.4 21:07:42 10° NNW 21:13:17 57° ENE 21:18:21 13° SE
USA 186 1.5 21:10:32 10° SSE 21:13:39 68° ENE 21:16:37 10° N
Tiangong 1 2.0 21:10:40 10° W 21:13:40 43° N 21:16:25 11° ENE
FENGYUN 3A 3.7 21:08:52 10° SSE 21:14:13 89° WSW 21:19:36 10° NNW
OTV 4 0.5 21:12:06 10° W 21:15:02 61° S 21:16:45 22° ESE
NOSS 7 (D) 4.3 21:11:32 10° SSW 21:15:03 89° ESE 21:18:25 10° NE
Cosmos 2208 Rocket 4.0 21:12:00 10° SSW 21:17:18 89° ESE 21:22:43 10° NNE
Cosmos 1656 4.1 21:14:24 10° S 21:19:35 39° ESE 21:24:43 10° NE
Cosmos 1500 4.3 21:18:30 19° SE 21:20:03 24° E 21:23:09 10° NE
Meteor 1-5 Rocket 4.3 21:15:36 10° SSW 21:20:54 79° W 21:26:23 10° N
RESURS DK-1 4.4 21:18:59 10° NNE 21:21:00 13° NE 21:22:21 12° ENE
NOSS 3-4 (A) 3.8 21:13:57 10° NNW 21:21:02 87° ENE 21:28:01 12° SSE
NOSS 3-4 (C) 3.8 21:14:04 10° NNW 21:21:09 86° NE 21:28:06 12° SSE
BREEZE-M TANK 4.1 21:06:37 10° WNW 21:21:37 60° N 21:24:54 15° E
Cosmos 2082 3.7 21:21:08 10° NNW 21:26:45 68° ENE 21:31:16 16° SSE
CZ-4 DEB 3.2 21:26:40 26° SE 21:27:59 41° ENE 21:30:59 10° N
Cosmos 2297 Rocket 2.4 21:23:24 10° NNW 21:28:58 54° ENE 21:32:48 20° SE
Envisat 3.4 21:34:13 22° SE 21:37:04 43° ENE 21:41:52 10° N
Cosmos 1605 Rocket 4.1 21:34:40 10° S 21:41:02 80° W 21:47:21 10° N
SJ-11-01 4.2 21:38:17 19° SSE 21:41:37 69° ENE 21:46:17 10° N
Cosmos 1937 Rocket 4.5 21:37:16 10° N 21:41:55 30° ENE 21:43:40 25° E
Cosmos 1515 3.8 21:39:52 10° N 21:43:39 53° E 21:44:57 35° SE
ASTEX 1 4.4 21:42:07 10° NNE 21:46:15 25° E 21:46:26 25° E
OAO 2 Rocket 3.6 21:41:47 10° WSW 21:46:36 47° S 21:48:32 32° ESE
Cosmos 2100 Rocket 4.2 21:42:26 13° SSE 21:47:55 49° E 21:53:55 10° NNE
Cosmos 2061 Rocket 4.3 21:44:13 17° SSE 21:48:45 45° E 21:54:40 10° NNE
YAOGAN 6 4.3 21:49:35 20° ENE 21:49:35 20° ENE 21:51:54 10° NNE
Cosmos 2150 Rocket 4.2 21:47:33 10° N 21:52:33 49° ENE 21:54:22 34° ESE
Cosmos 1743 3.6 21:53:16 32° ENE 21:53:16 32° ENE 21:56:17 10° NNE
Iridium 4 Rocket 3.3 21:48:00 10° N 21:53:11 90° SSW 21:56:49 17° S
YAOGAN 11 4.1 21:50:15 21° SSE 21:53:17 85° WSW 21:57:47 10° NNW
Cosmos 1825 Rocket 4.3 21:51:09 10° NNE 21:55:09 33° ENE 21:55:21 32° E
Cosmos 1975 3.2 21:53:08 10° SSW 21:57:11 64° W 22:01:17 10° N
DELTA 2 R/B (1) 3.5 21:52:28 10° W 21:58:03 83° SSW 22:00:24 36° ESE
Cosmos 1066 Rocket 4.2 21:54:57 10° N 22:00:35 68° E 22:03:26 31° SSE
Cosmos 1697 Rocket 2.6 22:00:46 10° SSW 22:06:22 73° ESE 22:12:01 10° NNE
H-2A R/B 1.9 22:06:31 55° ESE 22:06:58 60° ENE 22:11:02 10° N
Lacrosse 5 rocket 0.9 22:05:34 10° NW 22:09:15 78° SW 22:09:24 75° SSW
ERS-1 Rocket 3.2 22:07:44 23° S 22:10:50 67° WSW 22:15:52 10° NNW
Cosmos 1626 Rocket 4.5 22:08:30 10° NNW 22:12:43 46° W 22:15:36 19° SSW
deb Chang Zheng 4 3.5 22:12:23 10° NNE 22:16:53 84° ESE 22:18:17 44° S
Cosmos 1898 Rocket 3.4 22:12:14 10° NNW 22:17:34 89° ENE 22:19:07 48° SSE
Cosmos 1461 4.3 22:16:35 10° NW 22:20:06 30° WSW 22:21:13 25° SW
Cosmos 1725 Rocket 4.4 22:22:45 40° E 22:22:54 41° E 22:28:39 10° NNE
Nimbus 7 Rocket 4.4 22:16:54 10° NNE 22:23:00 85° ESE 22:27:55 16° SSW
Cosmos 1758 Rocket 4.4 22:19:07 10° N 22:22:20 35° NE 22:22:20 35° NE
Cosmos 1763 Rocket 3.8 22:24:18 45° ENE 22:24:18 45° ENE 22:28:18 10° NNE
Cosmos 1459 Rocket 3.8 22:21:24 20° S 22:25:41 87° W 22:31:49 10° N
Cosmos 1980 Rocket 2.1 22:26:51 45° S 22:28:29 67° ESE 22:34:08 10° NNE
Cosmos 1939 Rocket 3.9 22:27:38 34° SW 22:28:51 44° W 22:32:51 10° NNW
ARGOS 3.4 22:30:52 48° ENE 22:30:59 48° ENE 22:36:09 10° N
Lacrosse 5 1.9 22:34:20 10° NW 22:39:23 65° NE 22:39:26 65° NE
SPOT 5 3.1 22:41:22 61° SSW 22:42:06 71° WSW 22:47:00 10° NNW
Cosmos 2058 Rocket 4.2 22:44:37 36° NNE 22:44:37 36° NNE 22:47:26 10° NNE
Cosmos 2084 3.9 22:38:53 10° NW 22:42:21 57° WNW 22:42:21 57° WNW
Cosmos 841 Rocket 3.8 22:45:04 55° NE 22:45:04 55° NE 22:49:14 10° NNE
USA 215 3.9 22:44:53 37° ENE 22:46:47 46° NNE 22:52:57 10° NW
BREEZE-M DEB (TANK) 4.4 22:31:57 10° SW 22:47:40 68° SE 22:49:08 51° E
Meteor 1-21 4.2 22:43:17 10° N 22:49:04 83° W 22:49:52 67° S
MetOp-B 4.2 22:49:20 64° SSW 22:49:59 72° WSW 22:55:21 10° NNW
Tiangong 1 3.9 22:47:25 10° WNW 22:48:24 18° WNW 22:48:24 18° WNW
Cosmos 1802 Rocket 4.3 22:47:44 25° SSW 22:51:33 66° W 22:57:58 10° N
Cosmos 1606 Rocket 4.2 22:54:42 55° NW 22:54:42 55° NW 22:58:37 10° N
Cosmos 2227 Rocket 4.4 22:53:01 10° WNW 22:56:49 19° W 23:00:12 11° SW
SL-08 R/B 4.4 22:55:42 59° SSW 22:56:58 84° W 23:03:12 10° N
Cosmos 2263 Rocket 3.8 22:54:36 10° N 22:58:16 22° NE 22:58:16 22° NE
RESURS DK-1 3.6 22:55:22 10° NNW 22:58:17 41° NW 22:58:17 41° NW
Cosmos 2322 Rocket 3.9 23:03:22 21° NE 23:03:22 21° NE 23:05:17 10° NE
Cosmos 2360 4.3 23:06:40 74° N 23:06:40 74° N 23:11:54 10° NNE
CZ-3C R/B 4.3 22:55:05 10° WSW 23:07:26 18° SW 23:09:52 17° SSW
Meteor 2-9 Rocket 4.3 23:10:24 70° NNW 23:10:24 70° NNW 23:15:18 10° N
Cosmos 2016 Rocket 4.5 23:07:40 36° SW 23:09:54 55° W 23:15:57 10° N
SL-19 R/B 4.5 23:06:13 10° N 23:11:39 62° WNW 23:12:00 60° W
Cosmos 2297 Rocket 4.2 23:08:36 10° NW 23:12:31 19° W 23:14:38 16° SW
Cosmos 2227 4.4 23:10:13 10° NNW 23:15:22 70° NW 23:15:22 70° NW
BREEZE-M DEB (TANK) 4.1 23:00:27 10° WNW 23:17:39 58° NNE 23:18:45 52° NE
H-2A R/B 3.0 23:19:52 40° N 23:19:52 40° N 23:23:04 10° N
Terra 3.3 23:23:37 31° N 23:23:37 31° N 23:26:11 10° N
BREEZE-M DEB (TANK) 4.3 23:41:30 10° W 23:48:16 40° NW 23:48:16 40° NW
